www.pogodaiklimat.ru

Погода и климат >> Архив погоды >> Гана >> Кофоридуа


ПОГОДА в Кофоридуа

  • Прогноз погоды в Кофоридуа
  • Монитор погоды в Кофоридуа

АРХИВ ПОГОДЫ в Кофоридуа

Время (UTC), дата Ветер
(напр.,м/с)
 
Видим.   Явления Облачность Т
(С)
Тd
(С)
f
(%)
Тe
(С)
Тes
(С)
Комфортность P
(гПа)
Po
(гПа)
Тmin
(С)
Tmax
(С)
R
(мм)
R24
(мм)
S
(см)
12 15.01 ЮЗ 1 3000 м мгла 4/4 500 м
[Cu med, cong]
+33.8 +22.8 53 +44 +56 опасность
перегрева
1012.3 1012.0
15 15.01 Ю 1 6000 м мгла 6/6 540 м
[Cu med, cong]
+35.9 +22.1 45 +44 +48 опасность
перегрева
1008.7 1009.0
21 15.01 ЮВ 1 5000 м дымка {гроза} 6/6 360 м
[Sc]
+28.0 +24.4 81 +39 +39 очень
душно
1013.3 1013.0
00 16.01 СЗ 1 4000 м дымка {гроза} 5/5 330 м
[Sc]
+26.7 +24.7 89 +38 +38 очень
душно
1013.2 1013.0
03 16.01 штиль 0 4000 м дымка 6/6 330 м
[Sc]
+26.0 +24.4 91 +36 +36 очень
душно
1011.6 1012.0
09 16.01 СЗ 1 4000 м мгла ясно +28.2 +24.0 78 +39 +50 очень
душно
1013.9 1014.0
12 16.01 ЮВ 1 4000 м мгла 4/4 450 м
[Cu med, cong]
+34.5 +24.5 56 +47 +60 опасность
перегрева
1011.1 1011.0
15 16.01 СВ 1 6000 м гроза без осадков 5/5 500 м
[Cb cap]
+35.5 +23.5 50 +46 +52 опасность
перегрева
1007.8 1008.0
18 16.01 штиль 0 6000 м в посл. час гроза 8/6 360 м
[Cb cap Ci fib]
+28.4 +22.2 69 +37 +37 очень
душно
1010.2 1010.0 +36.0
21 16.01 штиль 0 4000 м мгла 4/0
[Ci sp]
+26.5 +22.4 78 +35 +35 очень
душно
1012.6 1013.0
00 17.01 штиль 0 4000 м дымка 9/9 330 м
[Sc]
+25.5 +22.6 84 +34 +34 очень
душно
1012.6 1013.0
03 17.01 штиль 0 4000 м дымка 9/9 330 м
[Sc]
+26.0 +23.3 85 +35 +35 очень
душно
1011.4 1011.0
06 17.01 штиль 0 4000 м дымка 9/9 330 м
[Sc]
+24.9 +22.6 87 +33 +33 очень
душно
1012.4 1012.0 +24.1
12 17.01 З 1 4000 м мгла 4/4 500 м
[Cu med, cong]
+33.7 +24.3 58 +46 +59 опасность
перегрева
1011.5 1012.0
15 17.01 ЮЗ 1 4000 м мгла 5/5 500 м
[Cb cap]
+35.6 +23.6 50 +46 +52 опасность
перегрева
1008.1 1008.0
18 17.01 ЮВ 1 4000 м гроза без осадков 8/4 360 м
[Cb cap Cs]
+27.5 +19.3 61 +33 +33 очень
душно
1010.8 1011.0 +35.6
21 17.01 штиль 0 4000 м мгла {гроза} 8/8 360 м
[Sc]
+26.6 +20.0 67 +33 +33 очень
душно
1013.0 1013.0
00 18.01 СЗ 1 4000 м мгла {гроза} 8/8 360 м
[Sc]
+26.4 +22.3 78 +34 +34 очень
душно
1012.9 1013.0
03 18.01 СЗ 1 4000 м дымка 6/6 360 м
[Sc]
+26.2 +23.7 86 +36 +36 очень
душно
1011.2 1011.0
09 18.01 ЮЗ 3 8000 м дымка 8/0
[Cs]
+25.5 +22.0 81 +33 +39 очень
душно
1012.9 1013.0
12 18.01 ЮЗ 2 8000 м мгла 5/5 480 м
[Cu med, cong]
+32.0 +23.8 62 +43 +52 опасность
перегрева
1012.3 1012.0
15 18.01 ЮЗ 2 8000 м гроза без осадков 8/8 400 м
[Cb cap]
+34.0 +28.7 74 +57 +58 опасность
перегрева
1009.6 1010.0
15 19.01 ЮЗ 1 12 км 8/5 500 м
[Cu med, cong Cs]
+34.2 +23.0 52 +44 +49 опасность
перегрева
1010.3 1010.0
18 19.01 Ю 1 12 км 8/4 360 м
[Cu Sc Cs]
+29.5 +21.7 63 +38 +38 очень
душно
1012.0 1012.0 +34.2
21 19.01 штиль 0 12 км 3/3 360 м
[Sc]
+26.5 +22.8 80 +35 +35 очень
душно
1014.6 1015.0
06 20.01 штиль 0 12 км 8/8 330 м
[Sc]
+23.6 +22.0 91 +30 +30 очень
душно
1013.7 1014.0 +23.0
09 20.01 СЗ 1 8000 м дымка 6/6 360 м
[Cu Sc]
+27.6 +26.8 95 +43 +47 опасность
перегрева
1015.5 1016.0
12 20.01 ЮЗ 1 8000 м мгла 6/6 500 м
[Cu med, cong]
+33.0 +24.2 60 +45 +54 опасность
перегрева
1013.6 1014.0
18 20.01 штиль 0 12 км в посл. час гроза {дождь} 9/4 330 м
[Sc Cs]
+24.0 +22.4 91 +31 +31 очень
душно
1012.6 1013.0 +35.0 14
21 20.01 штиль 0 12 км 4/1 330 м
[Sc Ac trans]
+23.5 +22.3 93 +31 +31 очень
душно
1014.9 1015.0
00 21.01 штиль 0 12 км ясно +23.0 +21.6 92 +31 +31 очень
душно
1015.0 1015.0
03 21.01 штиль 0 12 км ясно +22.5 +21.5 94 +30 +30 очень
душно
1012.9 1013.0
06 21.01 штиль 0 9000 м дымка 5/4 330 м
[Sc Ci fib]
+21.5 +20.7 95 +27 +27 душно 1014.1 1014.0 +21.0 41
09 21.01 СВ 1 9000 м дымка ясно +26.0 +23.3 85 +35 +46 очень
душно
1014.8 1015.0
12 21.01 СЗ 1 16 км 1/1 500 м
[Cu med, cong]
+31.8 +22.8 59 +42 +62 опасность
перегрева
1012.9 1013.0
15 21.01 СВ 1 16 км 1/1 500 м
[Cu med, cong]
+35.4 +20.2 41 +41 +51 опасность
перегрева
1009.7 1010.0
18 21.01 штиль 0 16 км ясно +31.4 +20.1 51 +38 +38 очень
душно
1009.8 1010.0 +35.4
21 21.01 штиль 0 12 км 8/0
[Ac trans]
+26.2 +22.7 81 +35 +35 очень
душно
1013.5 1014.0
00 22.01 штиль 0 10 км 4/0
[Ac trans]
+26.0 +23.6 87 +35 +35 очень
душно
1013.5 1014.0
03 22.01 ЮЗ 1 10 км 9/9 360 м
[Sc]
+25.5 +23.9 91 +35 +35 очень
душно
1012.3 1012.0
09 22.01 СЗ 1 3000 м в посл. час туман 5/5 360 м
[Sc]
+24.5 +23.1 92 +33 +38 очень
душно
1014.3 1014.0

 

Местоположение метеостанции Кофоридуа (Гана): широта 6.08 долгота -0.25 высота над уровнем моря 167 м.

В архиве по умолчанию представлена погода в Кофоридуа за последнюю неделю. Архивные данные за месяц целиком и за предыдущие месяцы, начиная с января 2011 года, Вы можете получить, выбрав интересующий диапазон дат из раскрывающегося списка и нажав кнопку "Ввод!".


*Определитесь, кто Вы:
робот инопланетянин человек

Внимание! Время в таблицах - всемирное. Для получения местного времени необходимо прибавить поправку, которая равна 1 ч.

Смотрите также архив погоды в соседних городах и на ближайших метеорологических станциях:

Погода в Акюсе (Гана) (41 км)
Погода в Аккра (Гана) (54 км)
Погода в Тема (Гана) (58 км)
Погода в Аким Ода (Гана) (82 км)
Погода в Абетифи (Гана) (86 км)
Погода в Хо (Гана) (98 км)
Погода в Ада (Гана) (103 км)
Погода в Акатзи (Гана) (116 км)
Погода в Солтпонде (Гана) (133 км)
Погода в Кумаси (Гана) (165 км)

Пояснения к столбцам:

Ветер - указаны скорость ветра в м/с - средняя за 10 мин, порывы в срок и между сроками (в фигурных скобках) и направление, откуда дует ветер: С - северный, СВ - северо-восточный, В - восточный, ЮВ - юго-восточный, Ю - южный, ЮЗ - юго-западный, З - западный, СЗ - северо-западный.
Видимость - горизонтальная дальность видимости в метрах или километрах. При видимости от 1 до 10 км при отсутствии осадков обычно наблюдается дымка, при ухудшении видимости до 1 км и менее - туман. В сухую погоду видимость может ухудшаться дымом, пылью или мглою.
Явления - указаны атмосферные явления, наблюдавшиеся в срок или в последний час перед сроком; фигурными скобками обозначены явления, наблюдавшиеся между сроками (за 1-3 часа до срока); квадратными скобками обозначены град или гололедные отложения с указанием их диаметра в мм.
Облачность - указаны через наклонную черту общая и нижняя облачность в баллах и высота нижней границы облаков в метрах; квадратными скобками обозначены формы облаков: Ci - перистые, Cs - перисто-слоистые, Cc - перисто-кучевые, Ac - высококучевые, As - высокослоистые, Sc - слоисто-кучевые, Ns - слоисто-дождевые, Cu - кучевые, Cb - кучево-дождевые. Подробнее классификацию облаков см. в Атласе облаков (PDF).
T - Температура воздуха - температура, измеренная на высоте 2 м над землей.
Td - Температура точки росы - температура, при понижении до которой содержащийся в воздухе водяной пар достигнет насыщения.
f - Относительная влажность воздуха - влажноcть воздуха, измеренная на высоте 2 м над землей.
Te - Эффективная температура - температура, которую ощущает одетый по сезону человек в тени. Характеристика душности погоды. При расчете учитывается влияние влажности воздуха и скорости ветра на теплоощущения человека.
Tes - Эффективная температура на солнце - температура, которую ощущает человек, с поправкой на солнечный нагрев. Характеристика знойности погоды. Зависит от высоты солнца над горизонтом, облачности и скорости ветра. Ночью, в пасмурную погоду, а также при ветре 12 м/с и более поправка равна нулю.
P - Атмосферное давление - приведенное к уровню моря атмосферное давление.
Po - Атмосферное давление - измеренное на уровне метеостанции атмосферное давление.
Tmin - Минимальная температура - минимум температуры воздуха на высоте 2 м над землей.
Tmax - Максимальная температура - максимум температуры воздуха на высоте 2 м над землей.
R - Количество осадков - Количество выпавших осадков за период времени, мм. При наведении курсора мыши на число - период времени, за который выпало указанное количество осадков.
R24 - Количество осадков - Количество выпавших осадков за 24 часа, мм.
S - Снежный покров - Высота снежного покрова, см. При наведении курсора мыши на число - состояние снежного покрова и степень покрытия местности в баллах.